Showing default

HAWK-9B, 59450

Orbit data source: Space-Track

HAWK-9B, 59450 is a payload satellite owned by HawkEye 360 (US) in LEO that was launched on Sun, 07 Apr 2024 UTC via an FALCON 9 launch vehicle from the Air Force Eastern Test Range (AFETR). Payload-class satellites include a variety of spacecraft equipped with specific instruments for various scientific and technological missions. These include communications satellites like Starlink; space stations such as the ISS; scientific satellites like the Hubble; Earth observation satellites from companies like Planet Labs, Umbra, and HawkEye 360; GPS; miniature CubeSats for education and research; and military/defense satellites.

Loading next visibility...
Identifier
59450, 2024-066J
Orbit
LEO
Country
Flag of USUS
Related business
Manufacturer
UTIAS-SFL
Mission
Operational Commercial Sigint
Bus & Motor
HAWK2G, Unknown motor
Mass
31 kg wet, 30 kg dry
Launch date (UTC)
2024-04-07 (2 years ago)
Launch vehicle
FALCON 9
Launch site
Air Force Eastern Test Range (AFETR)
Object type
Payload
Rocket body
Debris
Shape & HBR
Box + 2 Pan, 1.0 m
Radar Cross Section
0.240 m², Medium (>0.1 m² and < 1m²)

Expand to show TLE details & history
Last TLE update: 6 hours ago

TLE from 6 hours ago
0 HAWK-9B
1 59450U 24066J   26127.28271078  .00001028  00000-0  10236-3 0  9990
2 59450  45.6207 129.5373 0002755 185.1690 174.9164 14.99009337113695
Epoch: 2026-05-07T06:47Z
TLE epoch observation values (Epoch: 2026-05-07T06:47:06.211Z)
Latitude
0.00003°
Longitude
162.63037°
Altitude
571.93 km
Speed
7.575 km/s
True Right ascension
08h 38m 08s
True Declination
0° 00' 00"
Sunlit
Object was in daylight at epoch
Visualization orbit readout
Latitude
Unknown
Longitude
Unknown
Altitude
Unknown
Speed
Unknown
Apparent Right ascension
Unknown
Apparent Declination
Unknown
Sunlit
N/A
Visualization observer readout
Local Sidereal Time
20:33:47
Azimuth
Unknown
Elevation
Unknown
Doppler factor
Unknown
Orbital elements
Apogee altitude
573.357 km
Perigee altitude
569.527 km
Semi-major axis
6,949.579 km
Eccentricity
0.00028
Inclination
45.6207°
RAAN
129.5373°
Arg. of periapsis
185.169°
True anomaly
174.9192°
Mean anomaly
174.9164°
Eccentric anomaly
174.9178°
Mean motion
3.74632 °/min
Orbital period
96.09 mins
BSTAR
0.00010236
Loading maneuver chart data...
Computing Atmospheric mass density...
Loading historical data...
Loading historical data...
Loading historical data...
Loading historical data...
Loading historical data...
Loading historical data...
Loading historical data...

Documentation

Showing up to 5 results
|